Time,TemperatureF,DewpointF,PressureIn,WindDirection,WindDirectionDegrees,WindSpeedMPH,WindSpeedGustMPH,Humidity,HourlyPrecipIn,Conditions,Clouds,dailyrainin,SoftwareType,DateUTC
2013-08-19 00:01:00,49.0,49.0,30.56,ENE,70,0.0,4.0,98,-99.99,,,-99.99,,2013-08-19 06:01:00,
2013-08-19 00:11:00,49.0,48.0,30.55,ENE,70,0.0,0.0,97,-99.99,,,-99.99,,2013-08-19 06:11:00,
2013-08-19 00:16:00,49.0,48.0,30.55,ENE,70,0.0,0.0,97,-99.99,,,-99.99,,2013-08-19 06:16:00,
2013-08-19 00:26:00,48.0,48.0,30.56,ENE,70,0.0,0.0,98,-99.99,,,-99.99,,2013-08-19 06:26:00,
2013-08-19 00:36:00,48.0,48.0,30.56,North,0,5.0,0.0,98,-99.99,,,-99.99,,2013-08-19 06:36:00,
2013-08-19 00:46:00,48.0,47.0,30.56,North,0,7.0,7.0,98,-99.99,,,-99.99,,2013-08-19 06:46:00,
2013-08-19 00:51:00,48.0,47.0,30.56,NW,320,9.0,9.0,99,-99.99,,,-99.99,,2013-08-19 06:51:00,
2013-08-19 00:56:00,47.0,47.0,30.55,NNW,330,8.0,9.0,99,-99.99,,,-99.99,,2013-08-19 06:56:00,
2013-08-19 01:01:00,48.0,47.0,30.56,NNW,340,4.0,8.0,99,-99.99,,,-99.99,,2013-08-19 07:01:00,
2013-08-19 01:11:00,47.0,47.0,30.56,NNW,330,6.0,9.0,99,-99.99,,,-99.99,,2013-08-19 07:11:00,
2013-08-19 01:16:00,47.0,47.0,30.56,NW,320,7.0,9.0,100,-99.99,,,-99.99,,2013-08-19 07:16:00,
2013-08-19 01:26:00,47.0,47.0,30.56,NNW,330,3.0,8.0,100,-99.99,,,-99.99,,2013-08-19 07:26:00,
2013-08-19 01:36:00,47.0,47.0,30.56,North,0,5.0,7.0,100,-99.99,,,-99.99,,2013-08-19 07:36:00,
2013-08-19 01:46:00,47.0,47.0,30.55,NNW,340,4.0,6.0,100,-99.99,,,-99.99,,2013-08-19 07:46:00,
2013-08-19 01:56:00,47.0,47.0,30.55,North,350,0.0,6.0,100,-99.99,,,-99.99,,2013-08-19 07:56:00,
2013-08-19 02:01:00,47.0,47.0,30.55,NNE,20,5.0,0.0,100,-99.99,,,-99.99,,2013-08-19 08:01:00,
2013-08-19 02:11:00,47.0,47.0,30.55,NNW,330,6.0,7.0,100,-99.99,,,-99.99,,2013-08-19 08:11:00,
2013-08-19 02:16:00,47.0,47.0,30.55,NW,310,6.0,8.0,99,-99.99,,,-99.99,,2013-08-19 08:16:00,
2013-08-19 02:21:00,47.0,47.0,30.55,NE,40,0.0,9.0,99,-99.99,,,-99.99,,2013-08-19 08:21:00,
2013-08-19 02:26:00,47.0,47.0,30.55,North,0,2.0,7.0,99,-99.99,,,-99.99,,2013-08-19 08:26:00,
2013-08-19 02:31:00,47.0,46.0,30.54,NNE,20,6.0,6.0,99,-99.99,,,-99.99,,2013-08-19 08:31:00,
2013-08-19 02:36:00,46.0,46.0,30.54,NNE,30,0.0,6.0,99,-99.99,,,-99.99,,2013-08-19 08:36:00,
2013-08-19 02:46:00,46.0,46.0,30.54,NW,310,8.0,8.0,99,-99.99,,,-99.99,,2013-08-19 08:46:00,
2013-08-19 02:56:00,46.0,46.0,30.54,North,0,4.0,8.0,99,-99.99,,,-99.99,,2013-08-19 08:56:00,
2013-08-19 03:01:00,46.0,45.0,30.54,NW,320,6.0,6.0,99,-99.99,,,-99.99,,2013-08-19 09:01:00,
2013-08-19 03:06:00,45.0,45.0,30.54,NW,320,0.0,6.0,99,-99.99,,,-99.99,,2013-08-19 09:06:00,
2013-08-19 03:16:00,45.0,45.0,30.54,NNW,340,6.0,7.0,99,-99.99,,,-99.99,,2013-08-19 09:16:00,
2013-08-19 03:26:00,45.0,45.0,30.54,NNW,330,7.0,7.0,99,-99.99,,,-99.99,,2013-08-19 09:26:00,
2013-08-19 03:31:00,45.0,45.0,30.54,NW,320,7.0,7.0,99,-99.99,,,-99.99,,2013-08-19 09:31:00,
2013-08-19 03:36:00,44.0,44.0,30.54,WNW,290,9.0,9.0,100,-99.99,,,-99.99,,2013-08-19 09:36:00,
2013-08-19 03:41:00,44.0,44.0,30.54,North,0,9.0,10.0,100,-99.99,,,-99.99,,2013-08-19 09:41:00,
2013-08-19 03:46:00,44.0,44.0,30.54,NNW,340,4.0,9.0,100,-99.99,,,-99.99,,2013-08-19 09:46:00,
2013-08-19 03:51:00,44.0,44.0,30.54,NNW,330,7.0,10.0,100,-99.99,,,-99.99,,2013-08-19 09:51:00,
2013-08-19 04:01:00,44.0,44.0,30.54,NW,320,7.0,9.0,100,-99.99,,,-99.99,,2013-08-19 10:01:00,
2013-08-19 04:06:00,44.0,44.0,30.54,WNW,290,0.0,9.0,100,-99.99,,,-99.99,,2013-08-19 10:06:00,
2013-08-19 04:11:00,44.0,44.0,30.54,WNW,290,0.0,7.0,100,-99.99,,,-99.99,,2013-08-19 10:11:00,
2013-08-19 04:16:00,44.0,44.0,30.54,North,350,6.0,0.0,100,-99.99,,,-99.99,,2013-08-19 10:16:00,
2013-08-19 04:21:00,44.0,44.0,30.54,North,350,6.0,8.0,100,-99.99,,,-99.99,,2013-08-19 10:21:00,
2013-08-19 04:26:00,43.0,43.0,30.54,NW,320,5.0,7.0,100,-99.99,,,-99.99,,2013-08-19 10:26:00,
2013-08-19 04:31:00,43.0,43.0,30.53,NNW,330,8.0,8.0,100,-99.99,,,-99.99,,2013-08-19 10:31:00,
2013-08-19 04:41:00,43.0,43.0,30.54,ENE,60,7.0,7.0,100,-99.99,,,-99.99,,2013-08-19 10:41:00,
2013-08-19 04:51:00,43.0,43.0,30.54,North,0,8.0,8.0,100,-99.99,,,-99.99,,2013-08-19 10:51:00,
2013-08-19 04:56:00,43.0,43.0,30.54,North,0,5.0,8.0,100,-99.99,,,-99.99,,2013-08-19 10:56:00,
2013-08-19 05:06:00,43.0,43.0,30.53,NNE,30,7.0,7.0,100,-99.99,,,-99.99,,2013-08-19 11:06:00,
2013-08-19 05:11:00,43.0,43.0,30.53,North,350,6.0,7.0,100,-99.99,,,-99.99,,2013-08-19 11:11:00,
2013-08-19 05:21:00,42.0,42.0,30.53,NNW,340,5.0,8.0,100,-99.99,,,-99.99,,2013-08-19 11:21:00,
2013-08-19 05:31:00,42.0,42.0,30.53,NW,310,7.0,8.0,100,-99.99,,,-99.99,,2013-08-19 11:31:00,
2013-08-19 05:36:00,42.0,42.0,30.53,NNW,340,6.0,9.0,100,-99.99,,,-99.99,,2013-08-19 11:36:00,
2013-08-19 05:41:00,42.0,42.0,30.53,NNW,330,6.0,8.0,100,-99.99,,,-99.99,,2013-08-19 11:41:00,
2013-08-19 05:46:00,42.0,42.0,30.53,NNW,330,5.0,9.0,100,-99.99,,,-99.99,,2013-08-19 11:46:00,
2013-08-19 05:56:00,42.0,42.0,30.53,NNW,340,9.0,9.0,100,-99.99,,,-99.99,,2013-08-19 11:56:00,
2013-08-19 06:06:00,42.0,42.0,30.53,NNE,30,7.0,9.0,100,-99.99,,,-99.99,,2013-08-19 12:06:00,
2013-08-19 06:11:00,42.0,42.0,30.53,North,10,5.0,8.0,100,-99.99,,,-99.99,,2013-08-19 12:11:00,
2013-08-19 06:16:00,42.0,42.0,30.53,NW,310,6.0,7.0,100,-99.99,,,-99.99,,2013-08-19 12:16:00,
2013-08-19 06:26:00,42.0,42.0,30.54,NW,310,11.0,11.0,100,-99.99,,,-99.99,,2013-08-19 12:26:00,
2013-08-19 06:36:00,42.0,42.0,30.54,NNW,340,6.0,9.0,100,-99.99,,,-99.99,,2013-08-19 12:36:00,
2013-08-19 06:46:00,42.0,42.0,30.53,NNW,340,7.0,8.0,100,-99.99,,,-99.99,,2013-08-19 12:46:00,
2013-08-19 06:51:00,42.0,42.0,30.54,North,0,0.0,9.0,100,-99.99,,,-99.99,,2013-08-19 12:51:00,
2013-08-19 06:56:00,42.0,42.0,30.54,NNW,330,7.0,8.0,100,-99.99,,,-99.99,,2013-08-19 12:56:00,
2013-08-19 07:01:00,42.0,42.0,30.54,NNW,340,7.0,8.0,100,-99.99,,,-99.99,,2013-08-19 13:01:00,
2013-08-19 07:11:00,42.0,42.0,30.54,NNE,30,5.0,8.0,100,-99.99,,,-99.99,,2013-08-19 13:11:00,
2013-08-19 07:16:00,43.0,43.0,30.54,North,0,4.0,6.0,100,-99.99,,,-99.99,,2013-08-19 13:16:00,
2013-08-19 07:26:00,43.0,43.0,30.54,North,350,5.0,9.0,100,-99.99,,,-99.99,,2013-08-19 13:26:00,
2013-08-19 07:31:00,44.0,44.0,30.54,NW,320,6.0,10.0,100,-99.99,,,-99.99,,2013-08-19 13:31:00,
2013-08-19 07:36:00,44.0,44.0,30.54,North,350,8.0,8.0,100,-99.99,,,-99.99,,2013-08-19 13:36:00,
2013-08-19 07:46:00,45.0,45.0,30.54,NW,320,7.0,9.0,100,-99.99,,,-99.99,,2013-08-19 13:46:00,
2013-08-19 07:51:00,45.0,45.0,30.54,WNW,300,6.0,8.0,100,-99.99,,,-99.99,,2013-08-19 13:51:00,
2013-08-19 08:01:00,46.0,46.0,30.54,NNW,330,8.0,9.0,99,-99.99,,,-99.99,,2013-08-19 14:01:00,
2013-08-19 08:11:00,48.0,47.0,30.54,West,280,0.0,8.0,99,-99.99,,,-99.99,,2013-08-19 14:11:00,
2013-08-19 08:21:00,50.0,49.0,30.55,West,280,0.0,0.0,96,-99.99,,,-99.99,,2013-08-19 14:21:00,
2013-08-19 08:31:00,51.0,49.0,30.55,NNW,340,0.0,4.0,91,-99.99,,,-99.99,,2013-08-19 14:31:00,
2013-08-19 08:41:00,53.0,49.0,30.55,NNW,340,0.0,0.0,87,-99.99,,,-99.99,,2013-08-19 14:41:00,
2013-08-19 08:51:00,54.0,49.0,30.55,NNW,340,0.0,0.0,82,-99.99,,,-99.99,,2013-08-19 14:51:00,
2013-08-19 08:56:00,55.0,49.0,30.55,SSE,150,3.0,0.0,80,-99.99,,,-99.99,,2013-08-19 14:56:00,
2013-08-19 09:01:00,56.0,50.0,30.55,SSE,150,0.0,4.0,80,-99.99,,,-99.99,,2013-08-19 15:01:00,
2013-08-19 09:11:00,57.0,51.0,30.55,SSE,150,0.0,0.0,78,-99.99,,,-99.99,,2013-08-19 15:11:00,
2013-08-19 09:21:00,58.0,50.0,30.55,SSE,150,0.0,0.0,74,-99.99,,,-99.99,,2013-08-19 15:21:00,
2013-08-19 09:31:00,59.0,51.0,30.54,SE,130,0.0,3.0,73,-99.99,,,-99.99,,2013-08-19 15:31:00,
2013-08-19 09:36:00,59.0,50.0,30.54,SE,130,0.0,0.0,70,-99.99,,,-99.99,,2013-08-19 15:36:00,
2013-08-19 09:41:00,60.0,50.0,30.54,SE,130,0.0,0.0,69,-99.99,,,-99.99,,2013-08-19 15:41:00,
2013-08-19 09:46:00,60.0,49.0,30.54,SSE,160,0.0,3.0,68,-99.99,,,-99.99,,2013-08-19 15:46:00,
2013-08-19 09:56:00,61.0,52.0,30.54,ESE,120,0.0,5.0,70,-99.99,,,-99.99,,2013-08-19 15:56:00,
2013-08-19 10:01:00,62.0,52.0,30.54,South,190,0.0,3.0,69,-99.99,,,-99.99,,2013-08-19 16:01:00,
2013-08-19 10:06:00,62.0,52.0,30.54,SSE,150,5.0,5.0,69,-99.99,,,-99.99,,2013-08-19 16:06:00,
2013-08-19 10:16:00,63.0,52.0,30.54,South,170,0.0,3.0,68,-99.99,,,-99.99,,2013-08-19 16:16:00,
2013-08-19 10:21:00,63.0,53.0,30.53,South,180,7.0,7.0,68,-99.99,,,-99.99,,2013-08-19 16:21:00,
2013-08-19 10:26:00,63.0,52.0,30.53,South,170,0.0,7.0,65,-99.99,,,-99.99,,2013-08-19 16:26:00,
2013-08-19 10:31:00,64.0,53.0,30.53,SSE,160,4.0,4.0,69,-99.99,,,-99.99,,2013-08-19 16:31:00,
2013-08-19 10:41:00,65.0,52.0,30.53,ENE,70,0.0,7.0,64,-99.99,,,-99.99,,2013-08-19 16:41:00,
2013-08-19 10:46:00,65.0,52.0,30.53,ESE,110,0.0,6.0,63,-99.99,,,-99.99,,2013-08-19 16:46:00,
2013-08-19 10:56:00,65.0,52.0,30.53,ENE,70,2.0,6.0,62,-99.99,,,-99.99,,2013-08-19 16:56:00,
2013-08-19 11:06:00,66.0,53.0,30.52,South,180,0.0,5.0,62,-99.99,,,-99.99,,2013-08-19 17:06:00,
2013-08-19 11:11:00,66.0,52.0,30.52,SE,140,5.0,7.0,61,-99.99,,,-99.99,,2013-08-19 17:11:00,
2013-08-19 11:16:00,67.0,52.0,30.52,SE,140,0.0,6.0,59,-99.99,,,-99.99,,2013-08-19 17:16:00,
2013-08-19 11:26:00,67.0,52.0,30.52,SSE,160,0.0,6.0,58,-99.99,,,-99.99,,2013-08-19 17:26:00,
2013-08-19 11:36:00,68.0,52.0,30.52,South,180,3.0,6.0,56,-99.99,,,-99.99,,2013-08-19 17:36:00,
2013-08-19 11:41:00,68.0,51.0,30.52,East,90,0.0,6.0,54,-99.99,,,-99.99,,2013-08-19 17:41:00,
2013-08-19 11:46:00,69.0,51.0,30.52,ESE,120,0.0,5.0,53,-99.99,,,-99.99,,2013-08-19 17:46:00,
2013-08-19 11:51:00,69.0,52.0,30.51,East,100,0.0,4.0,53,-99.99,,,-99.99,,2013-08-19 17:51:00,
2013-08-19 12:01:00,70.0,52.0,30.51,NE,40,0.0,5.0,52,-99.99,,,-99.99,,2013-08-19 18:01:00,
2013-08-19 12:11:00,70.0,52.0,30.51,South,180,3.0,5.0,52,-99.99,,,-99.99,,2013-08-19 18:11:00,
2013-08-19 12:21:00,71.0,53.0,30.50,SE,140,5.0,7.0,53,-99.99,,,-99.99,,2013-08-19 18:21:00,
2013-08-19 12:31:00,71.0,52.0,30.50,SSE,150,0.0,5.0,50,-99.99,,,-99.99,,2013-08-19 18:31:00,
2013-08-19 12:41:00,72.0,52.0,30.50,SE,130,3.0,6.0,51,-99.99,,,-99.99,,2013-08-19 18:41:00,
2013-08-19 12:46:00,72.0,54.0,30.50,SSE,150,6.0,6.0,51,-99.99,,,-99.99,,2013-08-19 18:46:00,
2013-08-19 12:51:00,73.0,54.0,30.50,SSE,160,6.0,8.0,51,-99.99,,,-99.99,,2013-08-19 18:51:00,
2013-08-19 12:56:00,74.0,55.0,30.50,SE,130,3.0,9.0,51,-99.99,,,-99.99,,2013-08-19 18:56:00,
2013-08-19 13:06:00,75.0,54.0,30.49,South,170,0.0,5.0,49,-99.99,,,-99.99,,2013-08-19 19:06:00,
2013-08-19 13:16:00,75.0,50.0,30.49,SE,140,3.0,7.0,41,-99.99,,,-99.99,,2013-08-19 19:16:00,
2013-08-19 13:21:00,76.0,51.0,30.48,South,170,0.0,6.0,42,-99.99,,,-99.99,,2013-08-19 19:21:00,
2013-08-19 13:31:00,77.0,45.0,30.48,NW,320,0.0,6.0,32,-99.99,,,-99.99,,2013-08-19 19:31:00,
2013-08-19 13:36:00,78.0,45.0,30.48,North,0,0.0,6.0,31,-99.99,,,-99.99,,2013-08-19 19:36:00,
2013-08-19 13:41:00,78.0,44.0,30.48,WNW,300,8.0,8.0,30,-99.99,,,-99.99,,2013-08-19 19:41:00,
2013-08-19 13:51:00,78.0,44.0,30.48,WSW,240,0.0,9.0,30,-99.99,,,-99.99,,2013-08-19 19:51:00,
2013-08-19 14:01:00,78.0,48.0,30.47,North,10,9.0,9.0,35,-99.99,,,-99.99,,2013-08-19 20:01:00,
2013-08-19 14:11:00,79.0,46.0,30.48,NNW,340,3.0,8.0,31,-99.99,,,-99.99,,2013-08-19 20:11:00,
2013-08-19 14:16:00,80.0,46.0,30.47,NE,50,6.0,8.0,31,-99.99,,,-99.99,,2013-08-19 20:16:00,
2013-08-19 14:26:00,79.0,45.0,30.47,North,0,3.0,8.0,30,-99.99,,,-99.99,,2013-08-19 20:26:00,
2013-08-19 14:36:00,78.0,44.0,30.47,NE,40,0.0,8.0,30,-99.99,,,-99.99,,2013-08-19 20:36:00,
2013-08-19 14:46:00,77.0,46.0,30.46,WNW,300,5.0,5.0,34,-99.99,,,-99.99,,2013-08-19 20:46:00,
2013-08-19 14:51:00,77.0,48.0,30.46,West,270,5.0,6.0,36,-99.99,,,-99.99,,2013-08-19 20:51:00,
2013-08-19 15:01:00,76.0,51.0,30.47,West,260,0.0,6.0,42,-99.99,,,-99.99,,2013-08-19 21:01:00,
2013-08-19 15:11:00,76.0,48.0,30.47,WSW,250,5.0,0.0,37,-99.99,,,-99.99,,2013-08-19 21:11:00,
2013-08-19 15:16:00,76.0,47.0,30.47,WSW,250,5.0,6.0,36,-99.99,,,-99.99,,2013-08-19 21:16:00,
2013-08-19 15:26:00,76.0,49.0,30.47,ESE,120,4.0,5.0,38,-99.99,,,-99.99,,2013-08-19 21:26:00,
2013-08-19 15:31:00,76.0,50.0,30.46,South,170,8.0,8.0,40,-99.99,,,-99.99,,2013-08-19 21:31:00,
2013-08-19 15:41:00,75.0,48.0,30.46,South,180,13.0,13.0,39,-99.99,,,-99.99,,2013-08-19 21:41:00,
2013-08-19 15:46:00,74.0,48.0,30.46,South,180,11.0,15.0,40,-99.99,,,-99.99,,2013-08-19 21:46:00,
2013-08-19 15:51:00,74.0,47.0,30.45,South,170,8.0,11.0,39,-99.99,,,-99.99,,2013-08-19 21:51:00,
2013-08-19 16:01:00,74.0,48.0,30.46,South,190,0.0,6.0,41,-99.99,,,-99.99,,2013-08-19 22:01:00,
2013-08-19 16:11:00,73.0,50.0,30.46,North,0,0.0,7.0,44,-99.99,,,-99.99,,2013-08-19 22:11:00,
2013-08-19 16:16:00,73.0,50.0,30.46,North,10,3.0,6.0,45,-99.99,,,-99.99,,2013-08-19 22:16:00,
2013-08-19 16:26:00,73.0,48.0,30.46,ENE,60,0.0,6.0,41,-99.99,,,-99.99,,2013-08-19 22:26:00,
2013-08-19 16:36:00,73.0,48.0,30.46,ENE,60,0.0,0.0,41,-99.99,,,-99.99,,2013-08-19 22:36:00,
2013-08-19 16:41:00,73.0,48.0,30.45,East,90,0.0,0.0,41,-99.99,,,-99.99,,2013-08-19 22:41:00,
2013-08-19 16:46:00,73.0,48.0,30.46,ENE,70,0.0,4.0,40,-99.99,,,-99.99,,2013-08-19 22:46:00,
2013-08-19 16:56:00,73.0,48.0,30.45,ENE,70,0.0,0.0,40,-99.99,,,-99.99,,2013-08-19 22:56:00,
2013-08-19 17:01:00,74.0,49.0,30.46,ENE,70,0.0,0.0,42,-99.99,,,-99.99,,2013-08-19 23:01:00,
2013-08-19 17:06:00,74.0,50.0,30.45,West,280,6.0,6.0,42,-99.99,,,-99.99,,2013-08-19 23:06:00,
2013-08-19 17:11:00,74.0,48.0,30.46,WNW,300,8.0,8.0,40,-99.99,,,-99.99,,2013-08-19 23:11:00,
2013-08-19 17:21:00,74.0,47.0,30.46,West,260,3.0,8.0,40,-99.99,,,-99.99,,2013-08-19 23:21:00,
2013-08-19 17:26:00,73.0,47.0,30.46,NW,320,5.0,8.0,40,-99.99,,,-99.99,,2013-08-19 23:26:00,
2013-08-19 17:31:00,73.0,48.0,30.46,North,350,3.0,6.0,41,-99.99,,,-99.99,,2013-08-19 23:31:00,
2013-08-19 17:41:00,73.0,50.0,30.46,NNW,340,0.0,4.0,44,-99.99,,,-99.99,,2013-08-19 23:41:00,
2013-08-19 17:51:00,72.0,46.0,30.45,East,80,10.0,10.0,40,-99.99,,,-99.99,,2013-08-19 23:51:00,
2013-08-19 18:01:00,71.0,46.0,30.45,ESE,120,0.0,11.0,40,-99.99,,,-99.99,,2013-08-20 00:01:00,
2013-08-19 18:06:00,71.0,45.0,30.44,ENE,70,0.0,7.0,39,-99.99,,,-99.99,,2013-08-20 00:06:00,
2013-08-19 18:16:00,72.0,46.0,30.45,East,80,0.0,7.0,39,-99.99,,,-99.99,,2013-08-20 00:16:00,
2013-08-19 18:26:00,72.0,46.0,30.45,NE,40,6.0,9.0,39,-99.99,,,-99.99,,2013-08-20 00:26:00,
2013-08-19 18:31:00,72.0,45.0,30.45,East,100,9.0,10.0,39,-99.99,,,-99.99,,2013-08-20 00:31:00,
2013-08-19 18:41:00,71.0,44.0,30.45,NE,50,5.0,10.0,38,-99.99,,,-99.99,,2013-08-20 00:41:00,
2013-08-19 18:46:00,71.0,45.0,30.45,East,90,8.0,9.0,39,-99.99,,,-99.99,,2013-08-20 00:46:00,
2013-08-19 18:56:00,71.0,43.0,30.45,ENE,70,6.0,17.0,37,-99.99,,,-99.99,,2013-08-20 00:56:00,
2013-08-19 19:01:00,70.0,43.0,30.45,ESE,110,7.0,17.0,38,-99.99,,,-99.99,,2013-08-20 01:01:00,
2013-08-19 19:11:00,69.0,43.0,30.46,NE,40,10.0,21.0,39,-99.99,,,-99.99,,2013-08-20 01:11:00,
2013-08-19 19:21:00,69.0,43.0,30.45,East,80,7.0,21.0,40,-99.99,,,-99.99,,2013-08-20 01:21:00,
2013-08-19 19:31:00,68.0,43.0,30.44,NE,50,6.0,16.0,40,-99.99,,,-99.99,,2013-08-20 01:31:00,
2013-08-19 19:36:00,68.0,43.0,30.45,East,90,8.0,25.0,40,-99.99,,,-99.99,,2013-08-20 01:36:00,
2013-08-19 19:41:00,68.0,43.0,30.45,ESE,120,4.0,21.0,41,-99.99,,,-99.99,,2013-08-20 01:41:00,
2013-08-19 19:51:00,68.0,43.0,30.45,East,90,3.0,9.0,41,-99.99,,,-99.99,,2013-08-20 01:51:00,
2013-08-19 20:01:00,67.0,45.0,30.47,SSW,210,13.0,13.0,44,-99.99,,,-99.99,,2013-08-20 02:01:00,
2013-08-19 20:06:00,67.0,45.0,30.47,West,280,9.0,12.0,46,-99.99,,,-99.99,,2013-08-20 02:06:00,
2013-08-19 20:16:00,66.0,45.0,30.48,East,100,3.0,8.0,46,-99.99,,,-99.99,,2013-08-20 02:16:00,
2013-08-19 20:21:00,66.0,46.0,30.48,ENE,70,6.0,6.0,48,-99.99,,,-99.99,,2013-08-20 02:21:00,
2013-08-19 20:31:00,66.0,46.0,30.48,East,100,5.0,5.0,49,-99.99,,,-99.99,,2013-08-20 02:31:00,
2013-08-19 20:41:00,65.0,46.0,30.49,ESE,120,3.0,6.0,50,-99.99,,,-99.99,,2013-08-20 02:41:00,
2013-08-19 20:51:00,65.0,47.0,30.49,East,80,0.0,0.0,53,-99.99,,,-99.99,,2013-08-20 02:51:00,
2013-08-19 21:01:00,64.0,47.0,30.49,ESE,120,3.0,0.0,54,-99.99,,,-99.99,,2013-08-20 03:01:00,
2013-08-19 21:06:00,64.0,47.0,30.49,East,100,0.0,4.0,54,-99.99,,,-99.99,,2013-08-20 03:06:00,
2013-08-19 21:16:00,63.0,47.0,30.50,ESE,120,3.0,6.0,54,-99.99,,,-99.99,,2013-08-20 03:16:00,
2013-08-19 21:26:00,63.0,47.0,30.51,ESE,120,3.0,11.0,56,-99.99,,,-99.99,,2013-08-20 03:26:00,
2013-08-19 21:36:00,62.0,47.0,30.52,East,100,0.0,6.0,57,-99.99,,,-99.99,,2013-08-20 03:36:00,
2013-08-19 21:46:00,62.0,47.0,30.52,East,100,0.0,0.0,59,-99.99,,,-99.99,,2013-08-20 03:46:00,
2013-08-19 21:56:00,61.0,47.0,30.52,SE,140,3.0,0.0,61,-99.99,,,-99.99,,2013-08-20 03:56:00,
2013-08-19 22:01:00,60.0,47.0,30.52,East,80,7.0,7.0,60,-99.99,,,-99.99,,2013-08-20 04:01:00,
2013-08-19 22:06:00,60.0,46.0,30.52,ESE,110,7.0,8.0,60,-99.99,,,-99.99,,2013-08-20 04:06:00,
2013-08-19 22:11:00,60.0,47.0,30.53,East,80,3.0,6.0,61,-99.99,,,-99.99,,2013-08-20 04:11:00,
2013-08-19 22:21:00,60.0,47.0,30.53,ESE,110,6.0,6.0,61,-99.99,,,-99.99,,2013-08-20 04:21:00,
2013-08-19 22:31:00,59.0,47.0,30.53,ENE,70,0.0,7.0,62,-99.99,,,-99.99,,2013-08-20 04:31:00,
2013-08-19 22:36:00,59.0,47.0,30.53,East,80,4.0,6.0,63,-99.99,,,-99.99,,2013-08-20 04:36:00,
2013-08-19 22:41:00,59.0,47.0,30.53,East,90,6.0,7.0,63,-99.99,,,-99.99,,2013-08-20 04:41:00,
2013-08-19 22:46:00,59.0,47.0,30.53,ENE,60,3.0,6.0,64,-99.99,,,-99.99,,2013-08-20 04:46:00,
2013-08-19 22:56:00,58.0,47.0,30.54,ENE,60,0.0,7.0,66,-99.99,,,-99.99,,2013-08-20 04:56:00,
2013-08-19 23:01:00,58.0,48.0,30.54,ENE,60,0.0,4.0,68,-99.99,,,-99.99,,2013-08-20 05:01:00,
2013-08-19 23:06:00,57.0,47.0,30.54,ENE,60,0.0,0.0,69,-99.99,,,-99.99,,2013-08-20 05:06:00,
2013-08-19 23:16:00,56.0,48.0,30.55,North,0,7.0,7.0,73,-99.99,,,-99.99,,2013-08-20 05:16:00,
2013-08-19 23:26:00,55.0,48.0,30.55,North,10,0.0,8.0,77,-99.99,,,-99.99,,2013-08-20 05:26:00,
2013-08-19 23:36:00,54.0,48.0,30.55,North,350,6.0,6.0,80,-99.99,,,-99.99,,2013-08-20 05:36:00,
2013-08-19 23:41:00,54.0,48.0,30.55,North,10,5.0,8.0,81,-99.99,,,-99.99,,2013-08-20 05:41:00,
2013-08-19 23:51:00,53.0,48.0,30.55,North,10,5.0,5.0,83,-99.99,,,-99.99,,2013-08-20 05:51:00,